Location: Buisson
(44.2787°N, 4.9969°E)
Time: 06:27:33
(UTC+00:00)

Gbstr 26 Del rocket - Pass Details

Date: 18 April 2021
Orbit: 493 x 1263 km, 51.8° (Epoch: 06 May)

Event Time Altitude Azimuth Distance (km) Brightness Sun altitude
Exits shadow 02:02:01 65° 272° (W) 939 3.7 -26.1°
Maximum altitude 02:02:48 77° 331° (NNW) 865 3.7 -26.0°
Drops below altitude 10° 02:07:58 10° 57° (ENE) 2,210 6.8 -25.4°
Sets 02:10:07 0° 60° (ENE) 3,027 7.8 -25.1°
